N628AX WIII-WAPP

Flight info

Callsign N628AX
Flight time 3h 4m
Altitude 41000
Route WIII/25L CA2C CA T5 MKS T15 HIPNO W53 HOLBA DCT WAPP
Aircraft C750/L-VGDW/C

Departure

Time 2026-04-21 22:10
Airport Soekarno-Hatta International Airport (WIII)

Arrival

Time 2026-04-22 01:14
Airport Pattimura International Airport (WAPP)
Time Latitude Longitude Altitude Speed Heading
2026-04-21 21:55 -6.13215 106.65503 41 ft 0 kts 40°
2026-04-21 21:59 -6.13222 106.65496 40 ft 3 kts 40°
2026-04-21 21:59 -6.13242 106.65479 40 ft 3 kts 40°
2026-04-21 21:59 -6.13250 106.65473 40 ft 0 kts 40°
2026-04-21 22:01 -6.13250 106.65484 40 ft 3 kts 136°
2026-04-21 22:02 -6.13288 106.65493 39 ft 6 kts 148°
2026-04-21 22:02 -6.13324 106.65528 39 ft 8 kts 130°
2026-04-21 22:02 -6.13362 106.65575 38 ft 8 kts 128°
2026-04-21 22:02 -6.13399 106.65615 38 ft 7 kts 146°
2026-04-21 22:03 -6.13446 106.65635 38 ft 7 kts 159°
2026-04-21 22:03 -6.13494 106.65652 38 ft 7 kts 160°
2026-04-21 22:03 -6.13522 106.65691 38 ft 8 kts 83°
2026-04-21 22:03 -6.13505 106.65743 38 ft 7 kts 67°
2026-04-21 22:04 -6.13486 106.65791 38 ft 7 kts 69°
2026-04-21 22:04 -6.13467 106.65838 38 ft 7 kts 69°
2026-04-21 22:04 -6.13443 106.65900 37 ft 11 kts 68°
2026-04-21 22:04 -6.13413 106.65976 36 ft 12 kts 68°
2026-04-21 22:05 -6.13381 106.66058 35 ft 12 kts 69°
2026-04-21 22:05 -6.13350 106.66138 35 ft 12 kts 68°
2026-04-21 22:05 -6.13318 106.66218 34 ft 13 kts 68°
2026-04-21 22:05 -6.13283 106.66308 32 ft 14 kts 69°
2026-04-21 22:06 -6.13246 106.66400 32 ft 13 kts 68°
2026-04-21 22:06 -6.13209 106.66495 30 ft 15 kts 67°
2026-04-21 22:06 -6.13168 106.66597 29 ft 15 kts 69°
2026-04-21 22:06 -6.13128 106.66698 28 ft 15 kts 68°
2026-04-21 22:07 -6.13087 106.66803 26 ft 16 kts 69°
2026-04-21 22:07 -6.13044 106.66913 26 ft 16 kts 68°
2026-04-21 22:07 -6.13001 106.67020 26 ft 16 kts 68°
2026-04-21 22:07 -6.12960 106.67124 26 ft 15 kts 69°
2026-04-21 22:08 -6.12934 106.67199 26 ft 9 kts 92°
2026-04-21 22:08 -6.12975 106.67236 27 ft 8 kts 159°
2026-04-21 22:08 -6.13028 106.67258 27 ft 7 kts 156°
2026-04-21 22:08 -6.13078 106.67276 27 ft 7 kts 179°
2026-04-21 22:09 -6.13109 106.67242 27 ft 0 kts 249°
2026-04-21 22:09 -6.13133 106.67184 26 ft 43 kts 248°
2026-04-21 22:10 -6.13385 106.66563 31 ft 141 kts 248°
2026-04-21 22:10 -6.13805 106.65490 401 ft 187 kts 250°
2026-04-21 22:10 -6.14237 106.64221 1418 ft 199 kts 251°
2026-04-21 22:10 -6.14742 106.62920 2438 ft 210 kts 247°
2026-04-21 22:11 -6.15307 106.61558 3500 ft 220 kts 249°
2026-04-21 22:11 -6.15882 106.60132 4594 ft 228 kts 249°
2026-04-21 22:11 -6.16481 106.58650 5682 ft 235 kts 248°
2026-04-21 22:11 -6.17090 106.57144 6759 ft 240 kts 248°
2026-04-21 22:12 -6.17717 106.55596 7789 ft 247 kts 248°
2026-04-21 22:12 -6.18361 106.54002 8820 ft 251 kts 248°
2026-04-21 22:12 -6.19060 106.52395 9806 ft 256 kts 237°
2026-04-21 22:12 -6.20397 106.51262 10692 ft 258 kts 198°
2026-04-21 22:13 -6.22150 106.51146 11618 ft 257 kts 161°
2026-04-21 22:13 -6.23758 106.51884 12528 ft 258 kts 152°
2026-04-21 22:13 -6.25409 106.52589 13403 ft 263 kts 155°
2026-04-21 22:13 -6.26928 106.53570 14208 ft 262 kts 126°
2026-04-21 22:14 -6.27588 106.55209 14976 ft 262 kts 91°
2026-04-21 22:14 -6.27158 106.56969 15609 ft 269 kts 57°
2026-04-21 22:14 -6.26019 106.58498 16157 ft 283 kts 54°
2026-04-21 22:14 -6.24850 106.60162 16672 ft 298 kts 54°
2026-04-21 22:15 -6.23611 106.61899 17168 ft 313 kts 54°
2026-04-21 22:15 -6.22323 106.63707 17657 ft 326 kts 54°
2026-04-21 22:15 -6.20974 106.65599 18150 ft 339 kts 54°
2026-04-21 22:15 -6.19583 106.67580 18637 ft 351 kts 58°
2026-04-21 22:16 -6.18768 106.69914 19092 ft 363 kts 84°
2026-04-21 22:16 -6.19031 106.72440 19591 ft 375 kts 107°
2026-04-21 22:16 -6.20328 106.74764 20111 ft 385 kts 123°
2026-04-21 22:16 -6.21573 106.77148 20736 ft 387 kts 112°
2026-04-21 22:17 -6.22766 106.79564 21344 ft 391 kts 115°
2026-04-21 22:17 -6.23961 106.82045 21939 ft 394 kts 115°
2026-04-21 22:17 -6.25160 106.84497 22512 ft 398 kts 115°
2026-04-21 22:17 -6.26387 106.87027 23072 ft 402 kts 115°
2026-04-21 22:18 -6.27636 106.89559 23628 ft 406 kts 116°
2026-04-21 22:18 -6.28961 106.92050 24195 ft 409 kts 116°
2026-04-21 22:18 -6.30292 106.94601 24726 ft 413 kts 116°
2026-04-21 22:18 -6.31633 106.97161 25252 ft 417 kts 116°
2026-04-21 22:19 -6.32982 106.99731 25772 ft 420 kts 116°
2026-04-21 22:19 -6.34355 107.02350 26317 ft 423 kts 116°
2026-04-21 22:19 -6.35715 107.04952 26799 ft 426 kts 116°
2026-04-21 22:19 -6.37094 107.07589 27278 ft 430 kts 116°
2026-04-21 22:20 -6.38495 107.10251 27728 ft 433 kts 116°
2026-04-21 22:20 -6.39912 107.12958 28176 ft 437 kts 116°
2026-04-21 22:20 -6.41324 107.15659 28620 ft 440 kts 116°
2026-04-21 22:20 -6.42765 107.18409 29074 ft 443 kts 116°
2026-04-21 22:21 -6.44203 107.21159 29503 ft 447 kts 116°
2026-04-21 22:21 -6.45635 107.23897 29924 ft 450 kts 116°
2026-04-21 22:21 -6.47096 107.26685 30313 ft 453 kts 116°
2026-04-21 22:21 -6.48575 107.29514 30710 ft 456 kts 116°
2026-04-21 22:22 -6.50050 107.32336 31074 ft 460 kts 116°
2026-04-21 22:22 -6.51540 107.35185 31442 ft 463 kts 117°
2026-04-21 22:22 -6.53034 107.38036 31790 ft 466 kts 117°
2026-04-21 22:22 -6.54549 107.40939 32161 ft 469 kts 117°
2026-04-21 22:23 -6.56056 107.43863 32521 ft 471 kts 114°
2026-04-21 22:23 -6.56935 107.47012 32840 ft 472 kts 96°
2026-04-21 22:23 -6.57303 107.50306 33261 ft 474 kts 96°
2026-04-21 22:23 -6.57703 107.53600 33615 ft 477 kts 96°
2026-04-21 22:24 -6.58089 107.56869 33976 ft 479 kts 96°
2026-04-21 22:24 -6.58488 107.60196 34333 ft 481 kts 96°
2026-04-21 22:24 -6.58888 107.63568 34704 ft 483 kts 96°
2026-04-21 22:24 -6.59287 107.66914 35055 ft 485 kts 96°
2026-04-21 22:25 -6.59693 107.70316 35384 ft 487 kts 96°
2026-04-21 22:25 -6.60096 107.73701 35708 ft 489 kts 96°
2026-04-21 22:25 -6.60508 107.77150 36007 ft 492 kts 96°
2026-04-21 22:25 -6.60919 107.80617 36310 ft 493 kts 96°
2026-04-21 22:26 -6.61338 107.84122 36599 ft 495 kts 96°
2026-04-21 22:26 -6.61748 107.87577 36863 ft 496 kts 96°
2026-04-21 22:26 -6.62160 107.91032 37126 ft 496 kts 96°
2026-04-21 22:26 -6.62564 107.94444 37385 ft 496 kts 96°
2026-04-21 22:27 -6.62970 107.97872 37647 ft 496 kts 96°
2026-04-21 22:27 -6.63379 108.01339 37912 ft 495 kts 96°
2026-04-21 22:27 -6.63784 108.04771 38170 ft 495 kts 96°
2026-04-21 22:27 -6.64185 108.08188 38429 ft 495 kts 96°
2026-04-21 22:28 -6.64592 108.11622 38576 ft 495 kts 96°
2026-04-21 22:28 -6.64994 108.15041 38737 ft 493 kts 96°
2026-04-21 22:28 -6.65395 108.18448 38896 ft 490 kts 96°
2026-04-21 22:28 -6.65796 108.21851 39055 ft 488 kts 96°
2026-04-21 22:29 -6.66193 108.25232 39214 ft 486 kts 96°
2026-04-21 22:29 -6.66589 108.28594 39376 ft 484 kts 96°
2026-04-21 22:29 -6.66979 108.31910 39532 ft 481 kts 96°
2026-04-21 22:29 -6.67371 108.35253 39692 ft 479 kts 96°
2026-04-21 22:30 -6.67759 108.38549 39849 ft 477 kts 96°
2026-04-21 22:30 -6.68147 108.41862 40009 ft 475 kts 96°
2026-04-21 22:30 -6.68533 108.45152 40170 ft 473 kts 96°
2026-04-21 22:30 -6.68915 108.48412 40330 ft 471 kts 96°
2026-04-21 22:31 -6.69296 108.51670 40494 ft 468 kts 96°
2026-04-21 22:31 -6.69668 108.54916 40661 ft 466 kts 94°
2026-04-21 22:31 -6.69531 108.58122 40828 ft 462 kts 81°
2026-04-21 22:32 -6.68679 108.64512 40880 ft 463 kts 82°
2026-04-21 22:32 -6.67836 108.70942 40848 ft 465 kts 82°
2026-04-21 22:33 -6.66994 108.77367 40854 ft 466 kts 82°
2026-04-21 22:33 -6.66145 108.83835 40847 ft 468 kts 82°
2026-04-21 22:34 -6.65294 108.90307 40843 ft 469 kts 82°
2026-04-21 22:34 -6.64440 108.96806 40848 ft 470 kts 82°
2026-04-21 22:35 -6.63577 109.03354 40842 ft 472 kts 82°
2026-04-21 22:35 -6.62720 109.09855 40843 ft 473 kts 82°
2026-04-21 22:36 -6.61425 109.19675 40847 ft 474 kts 82°
2026-04-21 22:36 -6.60557 109.26247 40844 ft 475 kts 82°
2026-04-21 22:37 -6.59690 109.32806 40849 ft 476 kts 82°
2026-04-21 22:37 -6.58815 109.39403 40849 ft 477 kts 82°
2026-04-21 22:38 -6.57939 109.46010 40852 ft 478 kts 82°
2026-04-21 22:38 -6.57065 109.52615 40850 ft 478 kts 82°
2026-04-21 22:39 -6.56186 109.59223 40855 ft 479 kts 82°
2026-04-21 22:39 -6.55302 109.65868 40859 ft 480 kts 82°
2026-04-21 22:40 -6.54422 109.72485 40859 ft 480 kts 82°
2026-04-21 22:40 -6.53534 109.79143 40853 ft 481 kts 82°
2026-04-21 22:41 -6.52642 109.85814 40855 ft 481 kts 82°
2026-04-21 22:41 -6.51759 109.92448 40852 ft 482 kts 82°
2026-04-21 22:42 -6.50866 109.99117 40850 ft 482 kts 82°
2026-04-21 22:42 -6.49978 110.05782 40846 ft 483 kts 82°
2026-04-21 22:43 -6.49085 110.12456 40840 ft 484 kts 82°
2026-04-21 22:43 -6.48183 110.19186 40840 ft 484 kts 82°
2026-04-21 22:44 -6.47286 110.25855 40838 ft 485 kts 82°
2026-04-21 22:44 -6.46384 110.32564 40842 ft 485 kts 82°
2026-04-21 22:45 -6.45485 110.39261 40839 ft 486 kts 82°
2026-04-21 22:45 -6.44596 110.46006 40839 ft 486 kts 82°
2026-04-21 22:46 -6.43708 110.52720 40840 ft 486 kts 82°
2026-04-21 22:46 -6.42820 110.59429 40846 ft 487 kts 82°
2026-04-21 22:47 -6.41922 110.66209 40849 ft 487 kts 82°
2026-04-21 22:47 -6.41028 110.72953 40849 ft 487 kts 81°
2026-04-21 22:48 -6.40135 110.79671 40849 ft 488 kts 81°
2026-04-21 22:48 -6.39239 110.86413 40847 ft 488 kts 82°
2026-04-21 22:49 -6.38342 110.93164 40846 ft 488 kts 82°
2026-04-21 22:49 -6.37441 110.99927 40846 ft 489 kts 82°
2026-04-21 22:50 -6.36546 111.06641 40844 ft 489 kts 81°
2026-04-21 22:50 -6.35642 111.13440 40843 ft 489 kts 82°
2026-04-21 22:51 -6.34750 111.20189 40842 ft 489 kts 81°
2026-04-21 22:51 -6.33856 111.26960 40841 ft 490 kts 81°
2026-04-21 22:52 -6.32964 111.33700 40841 ft 490 kts 82°
2026-04-21 22:52 -6.32067 111.40479 40842 ft 490 kts 81°
2026-04-21 22:53 -6.31169 111.47257 40842 ft 490 kts 82°
2026-04-21 22:53 -6.30273 111.54010 40841 ft 490 kts 82°
2026-04-21 22:54 -6.29371 111.60795 40842 ft 490 kts 82°
2026-04-21 22:54 -6.28470 111.67579 40840 ft 491 kts 81°
2026-04-21 22:55 -6.27567 111.74365 40841 ft 491 kts 81°
2026-04-21 22:55 -6.26660 111.81161 40841 ft 491 kts 82°
2026-04-21 22:56 -6.25744 111.87919 40841 ft 491 kts 81°
2026-04-21 22:56 -6.24820 111.94707 40842 ft 491 kts 81°
2026-04-21 22:57 -6.23894 112.01498 40841 ft 491 kts 81°
2026-04-21 22:57 -6.22969 112.08279 40843 ft 491 kts 81°
2026-04-21 22:58 -6.22047 112.15036 40843 ft 491 kts 82°
2026-04-21 22:58 -6.21120 112.21835 40838 ft 492 kts 81°
2026-04-21 22:59 -6.20188 112.28639 40834 ft 492 kts 81°
2026-04-21 22:59 -6.19262 112.35397 40825 ft 492 kts 82°
2026-04-21 23:00 -6.18327 112.42220 40824 ft 492 kts 82°
2026-04-21 23:00 -6.17399 112.49000 40832 ft 492 kts 82°
2026-04-21 23:01 -6.16463 112.55814 40826 ft 492 kts 82°
2026-04-21 23:01 -6.15529 112.62608 40831 ft 492 kts 82°
2026-04-21 23:02 -6.14592 112.69429 40840 ft 492 kts 82°
2026-04-21 23:02 -6.13654 112.76238 40842 ft 492 kts 82°
2026-04-21 23:03 -6.12720 112.83012 40840 ft 491 kts 82°
2026-04-21 23:03 -6.11785 112.89802 40841 ft 491 kts 82°
2026-04-21 23:04 -6.10849 112.96580 40841 ft 491 kts 82°
2026-04-21 23:04 -6.09913 113.03338 40841 ft 491 kts 82°
2026-04-21 23:05 -6.08978 113.10111 40840 ft 491 kts 82°
2026-04-21 23:05 -6.08041 113.16875 40842 ft 491 kts 82°
2026-04-21 23:06 -6.07099 113.23665 40842 ft 491 kts 82°
2026-04-21 23:06 -6.06162 113.30423 40841 ft 490 kts 82°
2026-04-21 23:07 -6.05220 113.37206 40841 ft 490 kts 82°
2026-04-21 23:07 -6.04280 113.43985 40840 ft 490 kts 82°
2026-04-21 23:08 -6.03341 113.50730 40842 ft 490 kts 82°
2026-04-21 23:08 -6.02400 113.57491 40841 ft 490 kts 82°
2026-04-21 23:09 -6.01455 113.64259 40842 ft 490 kts 82°
2026-04-21 23:09 -6.00511 113.71028 40841 ft 490 kts 82°
2026-04-21 23:10 -5.99569 113.77776 40842 ft 490 kts 82°
2026-04-21 23:10 -5.98628 113.84522 40843 ft 489 kts 82°
2026-04-21 23:11 -5.97677 113.91314 40841 ft 489 kts 82°
2026-04-21 23:11 -5.96734 113.98055 40841 ft 489 kts 82°
2026-04-21 23:12 -5.95787 114.04813 40842 ft 489 kts 82°
2026-04-21 23:12 -5.94838 114.11567 40840 ft 489 kts 82°
2026-04-21 23:13 -5.93896 114.18282 40842 ft 489 kts 82°
2026-04-21 23:13 -5.92949 114.25023 40836 ft 489 kts 82°
2026-04-21 23:14 -5.91996 114.31795 40826 ft 489 kts 82°
2026-04-21 23:14 -5.91048 114.38535 40835 ft 489 kts 82°
2026-04-21 23:15 -5.90102 114.45239 40846 ft 488 kts 82°
2026-04-21 23:15 -5.89153 114.51971 40841 ft 488 kts 82°
2026-04-21 23:16 -5.88203 114.58707 40841 ft 488 kts 82°
2026-04-21 23:16 -5.87246 114.65475 40841 ft 488 kts 82°
2026-04-21 23:17 -5.86295 114.72201 40843 ft 488 kts 82°
2026-04-21 23:17 -5.85344 114.78914 40839 ft 488 kts 82°
2026-04-21 23:18 -5.84392 114.85639 40846 ft 488 kts 82°
2026-04-21 23:18 -5.83437 114.92373 40840 ft 488 kts 82°
2026-04-21 23:19 -5.82485 114.99075 40841 ft 488 kts 82°
2026-04-21 23:19 -5.81529 115.05815 40841 ft 488 kts 82°
2026-04-21 23:20 -5.80575 115.12528 40841 ft 487 kts 82°
2026-04-21 23:20 -5.79618 115.19254 40842 ft 487 kts 82°
2026-04-21 23:21 -5.78665 115.25944 40842 ft 488 kts 82°
2026-04-21 23:21 -5.77700 115.32707 40842 ft 488 kts 82°
2026-04-21 23:22 -5.76749 115.39387 40842 ft 487 kts 82°
2026-04-21 23:22 -5.75786 115.46130 40838 ft 488 kts 82°
2026-04-21 23:23 -5.74827 115.52831 40841 ft 488 kts 82°
2026-04-21 23:23 -5.73862 115.59587 40843 ft 488 kts 82°
2026-04-21 23:24 -5.72903 115.66293 40839 ft 488 kts 82°
2026-04-21 23:24 -5.71937 115.73029 40841 ft 488 kts 82°
2026-04-21 23:25 -5.70970 115.79773 40841 ft 488 kts 82°
2026-04-21 23:25 -5.70008 115.86474 40840 ft 488 kts 82°
2026-04-21 23:26 -5.69044 115.93187 40840 ft 488 kts 82°
2026-04-21 23:26 -5.68072 115.99947 40843 ft 488 kts 82°
2026-04-21 23:27 -5.67106 116.06662 40841 ft 489 kts 82°
2026-04-21 23:27 -5.66138 116.13387 40850 ft 489 kts 82°
2026-04-21 23:28 -5.65169 116.20113 40859 ft 489 kts 82°
2026-04-21 23:28 -5.64193 116.26877 40863 ft 489 kts 82°
2026-04-21 23:29 -5.63222 116.33611 40864 ft 489 kts 82°
2026-04-21 23:29 -5.62253 116.40319 40862 ft 489 kts 82°
2026-04-21 23:30 -5.61275 116.47079 40861 ft 489 kts 82°
2026-04-21 23:30 -5.60301 116.53818 40863 ft 489 kts 82°
2026-04-21 23:31 -5.59329 116.60524 40863 ft 489 kts 82°
2026-04-21 23:31 -5.58350 116.67285 40855 ft 489 kts 82°
2026-04-21 23:32 -5.57374 116.73998 40841 ft 489 kts 82°
2026-04-21 23:32 -5.56397 116.80744 40844 ft 489 kts 82°
2026-04-21 23:33 -5.55423 116.87445 40841 ft 489 kts 82°
2026-04-21 23:33 -5.54441 116.94184 40842 ft 489 kts 82°
2026-04-21 23:34 -5.53464 117.00919 40845 ft 489 kts 82°
2026-04-21 23:34 -5.52461 117.07652 40840 ft 489 kts 79°
2026-04-21 23:35 -5.51125 117.14333 40853 ft 489 kts 79°
2026-04-21 23:35 -5.49811 117.21014 40839 ft 489 kts 78°
2026-04-21 23:36 -5.48497 117.27686 40846 ft 489 kts 78°
2026-04-21 23:36 -5.47187 117.34336 40837 ft 489 kts 78°
2026-04-21 23:37 -5.45867 117.41031 40845 ft 489 kts 78°
2026-04-21 23:37 -5.44551 117.47710 40836 ft 489 kts 78°
2026-04-21 23:38 -5.43235 117.54389 40843 ft 489 kts 78°
2026-04-21 23:38 -5.41922 117.61042 40840 ft 489 kts 78°
2026-04-21 23:39 -5.40597 117.67746 40843 ft 489 kts 78°
2026-04-21 23:39 -5.39274 117.74436 40840 ft 490 kts 78°
2026-04-21 23:40 -5.37950 117.81135 40841 ft 490 kts 78°
2026-04-21 23:40 -5.36636 117.87780 40849 ft 490 kts 78°
2026-04-21 23:41 -5.35305 117.94490 40860 ft 490 kts 78°
2026-04-21 23:41 -5.33979 118.01190 40863 ft 491 kts 78°
2026-04-21 23:42 -5.32653 118.07878 40863 ft 491 kts 78°
2026-04-21 23:42 -5.31318 118.14611 40860 ft 491 kts 78°
2026-04-21 23:43 -5.29993 118.21294 40859 ft 491 kts 78°
2026-04-21 23:43 -5.28658 118.28011 40860 ft 492 kts 78°
2026-04-21 23:44 -5.27322 118.34735 40860 ft 492 kts 78°
2026-04-21 23:44 -5.25986 118.41453 40861 ft 492 kts 78°
2026-04-21 23:45 -5.23985 118.51517 40856 ft 493 kts 78°
2026-04-21 23:46 -5.22640 118.58271 40848 ft 493 kts 78°
2026-04-21 23:46 -5.21304 118.64980 40846 ft 494 kts 78°
2026-04-21 23:47 -5.19957 118.71742 40845 ft 494 kts 78°
2026-04-21 23:47 -5.18615 118.78469 40843 ft 494 kts 78°
2026-04-21 23:48 -5.17264 118.85241 40844 ft 495 kts 78°
2026-04-21 23:48 -5.15918 118.91980 40842 ft 495 kts 78°
2026-04-21 23:49 -5.14572 118.98724 40840 ft 495 kts 78°
2026-04-21 23:49 -5.13218 119.05496 40845 ft 495 kts 78°
2026-04-21 23:50 -5.11868 119.12241 40850 ft 495 kts 78°
2026-04-21 23:50 -5.10516 119.18999 40846 ft 495 kts 78°
2026-04-21 23:51 -5.09155 119.25796 40853 ft 496 kts 78°
2026-04-21 23:51 -5.07807 119.32525 40859 ft 496 kts 78°
2026-04-21 23:52 -5.06454 119.39281 40872 ft 495 kts 78°
2026-04-21 23:52 -5.05096 119.46044 40880 ft 492 kts 78°
2026-04-21 23:53 -5.03757 119.52734 40892 ft 490 kts 79°
2026-04-21 23:53 -5.02700 119.59483 40903 ft 488 kts 81°
2026-04-21 23:54 -5.01645 119.66228 40915 ft 486 kts 81°
2026-04-21 23:54 -5.00596 119.72903 40943 ft 485 kts 81°
2026-04-21 23:55 -4.99551 119.79578 40934 ft 483 kts 81°
2026-04-21 23:55 -4.98510 119.86189 40941 ft 482 kts 81°
2026-04-21 23:56 -4.97467 119.92828 40951 ft 481 kts 81°
2026-04-21 23:56 -4.96431 119.99408 40946 ft 480 kts 81°
2026-04-21 23:57 -4.95387 120.06041 40936 ft 480 kts 81°
2026-04-21 23:57 -4.94350 120.12624 40925 ft 480 kts 81°
2026-04-21 23:58 -4.93314 120.19193 40912 ft 479 kts 81°
2026-04-21 23:58 -4.92276 120.25779 40898 ft 479 kts 81°
2026-04-21 23:59 -4.91232 120.32391 40894 ft 479 kts 81°
2026-04-21 23:59 -4.90200 120.38929 40889 ft 478 kts 81°
2026-04-22 00:00 -4.89157 120.45522 40883 ft 478 kts 80°
2026-04-22 00:00 -4.88121 120.52074 40882 ft 478 kts 80°
2026-04-22 00:01 -4.87087 120.58618 40878 ft 478 kts 80°
2026-04-22 00:01 -4.86038 120.65231 40875 ft 477 kts 80°
2026-04-22 00:02 -4.85003 120.71763 40872 ft 477 kts 80°
2026-04-22 00:02 -4.83962 120.78326 40877 ft 477 kts 80°
2026-04-22 00:03 -4.82925 120.84859 40878 ft 477 kts 80°
2026-04-22 00:03 -4.81881 120.91438 40886 ft 477 kts 80°
2026-04-22 00:04 -4.80838 120.97997 40885 ft 477 kts 80°
2026-04-22 00:04 -4.79800 121.04535 40883 ft 477 kts 80°
2026-04-22 00:05 -4.78758 121.11074 40883 ft 477 kts 80°
2026-04-22 00:05 -4.77714 121.17634 40884 ft 477 kts 80°
2026-04-22 00:06 -4.76672 121.24176 40885 ft 477 kts 80°
2026-04-22 00:06 -4.75628 121.30721 40884 ft 477 kts 80°
2026-04-22 00:07 -4.74584 121.37266 40885 ft 478 kts 80°
2026-04-22 00:07 -4.73534 121.43852 40886 ft 478 kts 80°
2026-04-22 00:08 -4.72488 121.50382 40888 ft 478 kts 81°
2026-04-22 00:08 -4.71437 121.56972 40887 ft 478 kts 81°
2026-04-22 00:09 -4.70391 121.63519 40884 ft 478 kts 81°
2026-04-22 00:09 -4.69342 121.70081 40880 ft 478 kts 81°
2026-04-22 00:10 -4.68292 121.76641 40885 ft 478 kts 81°
2026-04-22 00:10 -4.67237 121.83228 40883 ft 478 kts 81°
2026-04-22 00:11 -4.66190 121.89773 40889 ft 478 kts 81°
2026-04-22 00:11 -4.65133 121.96354 40885 ft 478 kts 81°
2026-04-22 00:12 -4.64094 122.02883 40883 ft 478 kts 82°
2026-04-22 00:12 -4.63056 122.09463 40877 ft 478 kts 82°
2026-04-22 00:13 -4.62020 122.16037 40879 ft 478 kts 81°
2026-04-22 00:13 -4.60987 122.22570 40875 ft 478 kts 81°
2026-04-22 00:14 -4.59948 122.29151 40874 ft 478 kts 81°
2026-04-22 00:14 -4.58906 122.35738 40876 ft 478 kts 81°
2026-04-22 00:15 -4.57867 122.42306 40878 ft 479 kts 81°
2026-04-22 00:15 -4.56824 122.48898 40874 ft 479 kts 81°
2026-04-22 00:16 -4.55785 122.55448 40879 ft 479 kts 81°
2026-04-22 00:16 -4.54739 122.62052 40881 ft 479 kts 81°
2026-04-22 00:17 -4.53700 122.68608 40880 ft 479 kts 81°
2026-04-22 00:17 -4.52654 122.75191 40881 ft 479 kts 80°
2026-04-22 00:18 -4.51609 122.81776 40904 ft 478 kts 80°
2026-04-22 00:18 -4.50571 122.88308 40930 ft 477 kts 80°
2026-04-22 00:19 -4.49525 122.94879 40955 ft 477 kts 80°
2026-04-22 00:19 -4.48489 123.01401 40976 ft 477 kts 80°
2026-04-22 00:20 -4.47441 123.07980 40949 ft 477 kts 80°
2026-04-22 00:20 -4.46400 123.14528 40926 ft 477 kts 80°
2026-04-22 00:21 -4.45357 123.21078 40902 ft 477 kts 80°
2026-04-22 00:21 -4.44315 123.27602 40890 ft 477 kts 80°
2026-04-22 00:22 -4.43264 123.34195 40889 ft 477 kts 80°
2026-04-22 00:22 -4.42223 123.40717 40890 ft 477 kts 80°
2026-04-22 00:23 -4.41189 123.47295 40888 ft 477 kts 80°
2026-04-22 00:23 -4.40165 123.53818 40889 ft 477 kts 80°
2026-04-22 00:24 -4.39136 123.60366 40890 ft 477 kts 80°
2026-04-22 00:24 -4.38104 123.66947 40889 ft 477 kts 80°
2026-04-22 00:25 -4.37080 123.73457 40890 ft 477 kts 80°
2026-04-22 00:25 -4.36050 123.80010 40887 ft 476 kts 80°
2026-04-22 00:26 -4.35022 123.86548 40876 ft 476 kts 80°
2026-04-22 00:26 -4.33988 123.93110 40871 ft 476 kts 80°
2026-04-22 00:27 -4.32960 123.99630 40869 ft 476 kts 80°
2026-04-22 00:27 -4.31927 124.06191 40870 ft 476 kts 80°
2026-04-22 00:28 -4.30895 124.12732 40866 ft 475 kts 80°
2026-04-22 00:28 -4.29867 124.19252 40871 ft 475 kts 80°
2026-04-22 00:29 -4.28840 124.25760 40870 ft 475 kts 80°
2026-04-22 00:29 -4.27811 124.32272 40870 ft 475 kts 80°
2026-04-22 00:30 -4.26774 124.38819 40869 ft 475 kts 80°
2026-04-22 00:30 -4.25748 124.45312 40866 ft 475 kts 80°
2026-04-22 00:31 -4.24716 124.51826 40868 ft 475 kts 80°
2026-04-22 00:31 -4.23688 124.58331 40870 ft 474 kts 80°
2026-04-22 00:32 -4.22654 124.64852 40868 ft 474 kts 80°
2026-04-22 00:32 -4.21624 124.71365 40871 ft 474 kts 80°
2026-04-22 00:33 -4.20593 124.77859 40872 ft 474 kts 80°
2026-04-22 00:33 -4.19560 124.84364 40876 ft 474 kts 80°
2026-04-22 00:34 -4.18522 124.90907 40879 ft 475 kts 80°
2026-04-22 00:34 -4.17482 124.97443 40109 ft 477 kts 81°
2026-04-22 00:34 -4.16964 125.00708 39437 ft 474 kts 81°
2026-04-22 00:35 -4.16455 125.03909 38771 ft 470 kts 81°
2026-04-22 00:35 -4.15942 125.07135 38139 ft 466 kts 81°
2026-04-22 00:35 -4.15437 125.10313 37542 ft 463 kts 81°
2026-04-22 00:35 -4.14935 125.13470 36949 ft 459 kts 81°
2026-04-22 00:36 -4.14438 125.16592 36357 ft 455 kts 81°
2026-04-22 00:36 -4.13939 125.19731 35764 ft 452 kts 81°
2026-04-22 00:36 -4.13448 125.22810 35178 ft 448 kts 81°
2026-04-22 00:36 -4.12962 125.25867 34596 ft 445 kts 81°
2026-04-22 00:37 -4.12473 125.28938 34007 ft 442 kts 81°
2026-04-22 00:37 -4.11996 125.31931 33432 ft 439 kts 81°
2026-04-22 00:37 -4.11512 125.34966 32848 ft 436 kts 81°
2026-04-22 00:37 -4.11042 125.37904 32309 ft 432 kts 81°
2026-04-22 00:38 -4.10572 125.40865 31804 ft 430 kts 81°
2026-04-22 00:38 -4.10105 125.43800 31297 ft 427 kts 81°
2026-04-22 00:38 -4.09637 125.46741 30789 ft 425 kts 81°
2026-04-22 00:38 -4.09174 125.49650 30278 ft 422 kts 81°
2026-04-22 00:39 -4.08717 125.52513 29781 ft 420 kts 81°
2026-04-22 00:39 -4.08258 125.55389 29277 ft 418 kts 81°
2026-04-22 00:39 -4.07800 125.58253 28772 ft 416 kts 81°
2026-04-22 00:39 -4.07344 125.61102 28267 ft 414 kts 80°
2026-04-22 00:40 -4.06890 125.63937 27765 ft 412 kts 81°
2026-04-22 00:40 -4.06437 125.66770 27260 ft 410 kts 80°
2026-04-22 00:40 -4.05990 125.69562 26761 ft 408 kts 81°
2026-04-22 00:40 -4.05541 125.72373 26258 ft 406 kts 81°
2026-04-22 00:41 -4.05102 125.75118 25762 ft 404 kts 81°
2026-04-22 00:41 -4.04658 125.77892 25262 ft 402 kts 81°
2026-04-22 00:41 -4.04218 125.80643 24759 ft 400 kts 81°
2026-04-22 00:41 -4.03778 125.83387 24263 ft 398 kts 81°
2026-04-22 00:42 -4.03341 125.86115 23762 ft 396 kts 81°
2026-04-22 00:42 -4.02905 125.88836 23266 ft 395 kts 81°
2026-04-22 00:42 -4.02477 125.91518 22789 ft 393 kts 81°
2026-04-22 00:42 -4.02044 125.94222 22296 ft 391 kts 81°
2026-04-22 00:43 -4.01622 125.96869 21840 ft 389 kts 81°
2026-04-22 00:43 -4.01194 125.99548 21391 ft 387 kts 81°
2026-04-22 00:43 -4.00775 126.02166 20947 ft 385 kts 81°
2026-04-22 00:43 -4.00351 126.04802 20499 ft 382 kts 81°
2026-04-22 00:44 -3.99933 126.07414 20114 ft 379 kts 81°
2026-04-22 00:44 -3.99517 126.10010 19728 ft 375 kts 81°
2026-04-22 00:44 -3.99105 126.12577 19315 ft 372 kts 81°
2026-04-22 00:44 -3.98697 126.15122 18926 ft 369 kts 80°
2026-04-22 00:45 -3.98294 126.17638 18525 ft 366 kts 80°
2026-04-22 00:45 -3.97893 126.20125 18168 ft 363 kts 80°
2026-04-22 00:45 -3.97494 126.22616 17790 ft 360 kts 80°
2026-04-22 00:45 -3.97096 126.25091 17360 ft 359 kts 80°
2026-04-22 00:46 -3.96704 126.27540 16992 ft 356 kts 80°
2026-04-22 00:46 -3.96307 126.29997 16633 ft 353 kts 80°
2026-04-22 00:46 -3.95921 126.32404 16280 ft 350 kts 80°
2026-04-22 00:46 -3.95541 126.34784 15908 ft 350 kts 80°
2026-04-22 00:47 -3.95151 126.37197 15735 ft 349 kts 80°
2026-04-22 00:47 -3.94769 126.39588 15609 ft 349 kts 80°
2026-04-22 00:47 -3.94379 126.41977 15567 ft 347 kts 79°
2026-04-22 00:47 -3.93932 126.44356 15473 ft 347 kts 79°
2026-04-22 00:48 -3.93496 126.46731 15456 ft 346 kts 79°
2026-04-22 00:48 -3.93051 126.49121 15460 ft 351 kts 79°
2026-04-22 00:48 -3.92602 126.51544 15465 ft 355 kts 79°
2026-04-22 00:48 -3.92150 126.53982 15468 ft 358 kts 79°
2026-04-22 00:49 -3.91697 126.56433 15466 ft 361 kts 79°
2026-04-22 00:49 -3.91239 126.58890 15465 ft 364 kts 79°
2026-04-22 00:49 -3.90774 126.61416 15471 ft 366 kts 79°
2026-04-22 00:49 -3.90303 126.63960 15472 ft 368 kts 79°
2026-04-22 00:50 -3.89831 126.66502 15483 ft 369 kts 79°
2026-04-22 00:50 -3.89363 126.69035 15485 ft 371 kts 78°
2026-04-22 00:50 -3.88894 126.71561 15490 ft 372 kts 78°
2026-04-22 00:50 -3.88420 126.74114 15488 ft 373 kts 78°
2026-04-22 00:51 -3.87942 126.76688 15490 ft 374 kts 79°
2026-04-22 00:51 -3.87459 126.79285 15489 ft 375 kts 79°
2026-04-22 00:51 -3.86987 126.81828 15483 ft 376 kts 79°
2026-04-22 00:51 -3.86510 126.84409 15480 ft 376 kts 79°
2026-04-22 00:52 -3.86026 126.87009 15479 ft 377 kts 79°
2026-04-22 00:52 -3.85550 126.89574 15476 ft 377 kts 79°
2026-04-22 00:52 -3.85067 126.92173 15472 ft 378 kts 79°
2026-04-22 00:52 -3.84591 126.94752 15467 ft 378 kts 78°
2026-04-22 00:53 -3.84117 126.97307 15455 ft 366 kts 78°
2026-04-22 00:53 -3.83652 126.99798 15453 ft 363 kts 78°
2026-04-22 00:53 -3.83192 127.02282 15456 ft 364 kts 78°
2026-04-22 00:53 -3.82726 127.04775 15458 ft 364 kts 78°
2026-04-22 00:54 -3.82260 127.07286 15458 ft 364 kts 78°
2026-04-22 00:54 -3.81795 127.09771 15456 ft 364 kts 78°
2026-04-22 00:54 -3.81336 127.12256 15458 ft 365 kts 79°
2026-04-22 00:54 -3.80868 127.14776 15456 ft 365 kts 79°
2026-04-22 00:55 -3.80405 127.17253 15457 ft 365 kts 78°
2026-04-22 00:55 -3.79939 127.19773 15456 ft 366 kts 78°
2026-04-22 00:55 -3.79007 127.24779 15451 ft 367 kts 79°
2026-04-22 00:56 -3.78544 127.27268 15449 ft 367 kts 78°
2026-04-22 00:56 -3.78078 127.29774 15446 ft 367 kts 78°
2026-04-22 00:56 -3.77616 127.32259 15438 ft 359 kts 78°
2026-04-22 00:56 -3.77157 127.34714 15436 ft 352 kts 78°
2026-04-22 00:57 -3.76714 127.37099 15430 ft 346 kts 78°
2026-04-22 00:57 -3.76276 127.39444 15321 ft 344 kts 78°
2026-04-22 00:57 -3.75841 127.41775 15077 ft 337 kts 78°
2026-04-22 00:57 -3.75415 127.44060 14833 ft 334 kts 78°
2026-04-22 00:58 -3.74992 127.46333 14593 ft 332 kts 78°
2026-04-22 00:58 -3.74570 127.48603 14356 ft 331 kts 78°
2026-04-22 00:58 -3.74149 127.50857 14116 ft 330 kts 78°
2026-04-22 00:58 -3.73728 127.53115 13878 ft 328 kts 78°
2026-04-22 00:59 -3.73310 127.55358 13641 ft 327 kts 78°
2026-04-22 00:59 -3.72897 127.57577 13405 ft 326 kts 78°
2026-04-22 00:59 -3.72480 127.59808 13166 ft 325 kts 78°
2026-04-22 00:59 -3.72063 127.62046 12927 ft 324 kts 78°
2026-04-22 01:00 -3.71650 127.64257 12687 ft 324 kts 79°
2026-04-22 01:00 -3.71236 127.66477 12453 ft 323 kts 79°
2026-04-22 01:00 -3.70823 127.68703 12216 ft 322 kts 79°
2026-04-22 01:00 -3.70721 127.70918 11978 ft 322 kts 92°
2026-04-22 01:01 -3.70837 127.73155 11748 ft 321 kts 90°
2026-04-22 01:01 -3.70928 127.75391 11510 ft 321 kts 91°
2026-04-22 01:01 -3.71016 127.77607 11282 ft 320 kts 91°
2026-04-22 01:01 -3.71107 127.79848 11047 ft 318 kts 91°
2026-04-22 01:02 -3.71195 127.81985 10781 ft 302 kts 91°
2026-04-22 01:02 -3.71277 127.84055 10488 ft 289 kts 91°
2026-04-22 01:02 -3.71358 127.86000 10260 ft 278 kts 91°
2026-04-22 01:02 -3.71432 127.87900 10020 ft 269 kts 91°
2026-04-22 01:03 -3.71508 127.89761 9744 ft 266 kts 91°
2026-04-22 01:03 -3.71581 127.91609 9474 ft 266 kts 91°
2026-04-22 01:03 -3.71657 127.93469 9262 ft 266 kts 91°
2026-04-22 01:03 -3.71731 127.95309 9056 ft 263 kts 91°
2026-04-22 01:04 -3.71804 127.97128 8998 ft 262 kts 91°
2026-04-22 01:04 -3.71878 127.98971 8992 ft 267 kts 91°
2026-04-22 01:04 -3.71954 128.00845 8983 ft 273 kts 91°
2026-04-22 01:04 -3.72031 128.02748 8997 ft 274 kts 91°
2026-04-22 01:05 -3.72106 128.04660 8997 ft 274 kts 91°
2026-04-22 01:05 -3.72158 128.06558 8993 ft 273 kts 89°
2026-04-22 01:05 -3.72175 128.08464 8997 ft 271 kts 90°
2026-04-22 01:05 -3.72197 128.10301 8746 ft 264 kts 90°
2026-04-22 01:06 -3.72220 128.12154 8216 ft 265 kts 90°
2026-04-22 01:06 -3.72241 128.13986 7663 ft 267 kts 90°
2026-04-22 01:06 -3.72263 128.15851 7287 ft 272 kts 90°
2026-04-22 01:06 -3.72311 128.17712 7046 ft 263 kts 91°
2026-04-22 01:07 -3.72389 128.19544 6558 ft 261 kts 91°
2026-04-22 01:07 -3.72458 128.21341 6045 ft 260 kts 91°
2026-04-22 01:07 -3.72531 128.23137 5574 ft 256 kts 91°
2026-04-22 01:07 -3.72598 128.24861 5490 ft 237 kts 91°
2026-04-22 01:08 -3.72533 128.26448 5271 ft 228 kts 76°
2026-04-22 01:08 -3.71907 128.27885 4834 ft 226 kts 58°
2026-04-22 01:08 -3.70886 128.29080 4341 ft 229 kts 42°
2026-04-22 01:08 -3.69530 128.29930 3868 ft 232 kts 24°
2026-04-22 01:09 -3.67971 128.30313 3440 ft 233 kts
2026-04-22 01:09 -3.66346 128.30185 3027 ft 234 kts 349°
2026-04-22 01:09 -3.64874 128.29558 2812 ft 226 kts 330°
2026-04-22 01:09 -3.63716 128.28563 2809 ft 218 kts 314°
2026-04-22 01:10 -3.62896 128.27255 2797 ft 222 kts 296°
2026-04-22 01:10 -3.62499 128.25766 2792 ft 224 kts 278°
2026-04-22 01:10 -3.62576 128.24208 2791 ft 218 kts 259°
2026-04-22 01:10 -3.63098 128.22826 2657 ft 213 kts 237°
2026-04-22 01:11 -3.63990 128.21649 2505 ft 208 kts 229°
2026-04-22 01:11 -3.64986 128.20653 2380 ft 203 kts 222°
2026-04-22 01:11 -3.66015 128.19672 2200 ft 201 kts 224°
2026-04-22 01:11 -3.66997 128.18700 2172 ft 191 kts 224°
2026-04-22 01:12 -3.67918 128.17784 2060 ft 186 kts 224°
2026-04-22 01:12 -3.68738 128.16806 1808 ft 181 kts 247°
2026-04-22 01:12 -3.68908 128.15610 1539 ft 170 kts 279°
2026-04-22 01:12 -3.68588 128.14516 1353 ft 162 kts 293°
2026-04-22 01:13 -3.68230 128.13460 1155 ft 152 kts 290°
2026-04-22 01:13 -3.68089 128.12479 921 ft 137 kts 263°
2026-04-22 01:13 -3.68416 128.11612 761 ft 135 kts 237°
2026-04-22 01:13 -3.69006 128.10933 591 ft 123 kts 222°
2026-04-22 01:14 -3.69634 128.10364 284 ft 120 kts 224°
2026-04-22 01:14 -3.70203 128.09784 90 ft 114 kts 223°
2026-04-22 01:14 -3.70741 128.09256 72 ft 97 kts 224°
2026-04-22 01:14 -3.71089 128.08913 67 ft 37 kts 225°
2026-04-22 01:15 -3.71212 128.08787 63 ft 10 kts 225°
2026-04-22 01:15 -3.71243 128.08749 63 ft 4 kts 284°
2026-04-22 01:15 -3.71222 128.08751 63 ft 5 kts 44°
2026-04-22 01:15 -3.71184 128.08801 64 ft 9 kts 57°
2026-04-22 01:16 -3.71142 128.08852 65 ft 8 kts 37°
2026-04-22 01:16 -3.71094 128.08858 67 ft 6 kts 332°
2026-04-22 01:16 -3.71058 128.08826 68 ft 8 kts 314°
2026-04-22 01:16 -3.71004 128.08774 70 ft 12 kts 330°
2026-04-22 01:17 -3.70925 128.08763 73 ft 10 kts
2026-04-22 01:17 -3.70860 128.08765 76 ft 8 kts 359°
2026-04-22 01:17 -3.70810 128.08763 78 ft 6 kts
2026-04-22 01:17 -3.70768 128.08765 79 ft 6 kts
2026-04-22 01:18 -3.70723 128.08768 81 ft 6 kts 21°
2026-04-22 01:18 -3.70698 128.08810 82 ft 9 kts 87°
2026-04-22 01:18 -3.70697 128.08878 81 ft 5 kts 77°
2026-04-22 01:18 -3.70678 128.08888 82 ft 2 kts
2026-04-22 01:19 -3.70652 128.08888 84 ft 4 kts 359°
2026-04-22 01:19 -3.70628 128.08888 85 ft 0 kts
2026-04-22 01:19 -3.70627 128.08888 85 ft 0 kts